period_start,C,m1,H,J0,J1,J2,J3,J4,J5,JA,JB,JC,JD,JJ,JK,JN,#
2017-06-25 00:46:41,0.00,0.00,0.00,16.82,14.81,14.38,11.86,35.86,1012.50,1876.83,3303.55,2858.09,3286.69,522.15,527.73,0.00,0000 0000 0000 0000 000000
2017-06-25 00:51:42,0.00,0.00,0.00,17.07,14.89,16.29,13.81,41.83,1012.84,2083.21,3662.36,3169.82,3646.05,600.58,606.55,0.05,0000 0000 0000 0000 000000
2017-06-25 00:56:43,0.01,0.00,0.00,17.27,14.99,17.34,13.79,41.95,1013.15,2083.00,3659.92,3168.11,3644.01,600.00,605.69,0.11,0000 0000 0000 0000 000000
2017-06-25 01:01:45,0.03,0.01,0.00,17.47,15.11,17.94,13.83,42.16,1013.20,2082.90,3657.84,3166.53,3642.28,600.14,605.51,0.16,0000 0000 0000 0000 000000
2017-06-25 01:06:46,0.02,0.01,0.00,17.59,15.26,18.30,13.85,42.11,1013.20,2082.15,3656.12,3165.20,3640.67,600.28,605.37,0.21,0000 0000 0000 0000 000000
2017-06-25 01:11:48,0.04,0.01,0.00,17.65,15.43,18.61,13.83,42.42,1013.26,2081.83,3654.38,3163.77,3639.00,599.89,604.85,0.26,0000 0000 0000 0000 000000
2017-06-25 01:16:50,0.03,0.01,0.00,17.69,15.63,18.95,13.87,42.67,1013.43,2081.05,3652.58,3162.37,3637.27,600.55,605.57,0.31,0000 0000 0000 0000 000000
2017-06-25 01:21:51,0.01,0.01,0.00,17.82,15.86,19.36,13.89,42.75,1013.63,2080.33,3650.95,3160.87,3635.55,600.06,604.95,0.36,0000 0000 0000 0000 000000
2017-06-25 01:26:52,0.00,0.01,0.00,18.02,16.11,19.76,13.84,42.83,1013.69,2079.45,3649.15,3159.41,3633.66,599.97,604.49,0.41,0000 0000 0000 0000 000000
2017-06-25 01:31:54,0.00,0.01,0.00,18.24,16.38,20.12,13.82,42.86,1013.69,2078.47,3647.55,3157.84,3631.72,599.95,603.98,0.46,0000 0000 0000 0000 000000
2017-06-25 01:36:55,0.00,0.01,0.00,18.45,16.67,20.53,13.79,42.87,1013.69,2077.42,3645.86,3156.20,3629.69,599.92,603.60,0.51,0000 0000 0000 0000 000000
2017-06-25 01:41:57,0.04,0.01,0.00,18.68,16.97,20.94,13.84,42.72,1013.71,2076.60,3643.56,3154.34,3627.47,600.07,603.19,0.56,0000 0000 0000 0000 000000
2017-06-25 01:46:58,0.01,0.02,0.00,18.94,17.27,21.34,13.78,42.92,1013.71,2075.48,3641.50,3152.47,3625.18,600.08,602.68,0.61,0000 0000 0000 0000 000000
2017-06-25 01:51:59,0.02,0.02,0.00,19.21,17.59,21.72,13.94,42.79,1013.74,2074.31,3639.39,3150.58,3622.87,600.76,602.90,0.66,0000 0000 0000 0000 000000
2017-06-25 01:57:00,0.02,0.02,0.00,19.47,17.91,22.12,13.86,42.76,1013.85,2073.15,3637.29,3148.67,3620.57,600.27,601.88,0.71,0000 0000 0000 0000 000000
2017-06-25 02:02:01,0.01,0.02,0.00,19.73,18.24,22.48,13.87,42.74,1013.89,2071.94,3634.97,3146.63,3618.12,600.04,601.03,0.76,0000 0000 0000 0000 000000
2017-06-25 02:07:02,0.00,0.02,0.00,19.98,18.57,22.86,13.80,42.70,1013.93,2070.77,3632.75,3144.68,3615.76,599.90,600.50,0.81,0000 0000 0000 0000 000000
2017-06-25 02:12:04,0.00,0.02,0.00,20.20,18.89,23.22,13.77,42.77,1014.05,2069.60,3630.47,3142.65,3613.31,599.80,599.93,0.86,0000 0000 0000 0000 000000
2017-06-25 02:17:05,0.01,0.02,0.00,20.43,19.22,23.58,13.77,42.77,1014.16,2068.29,3628.39,3140.75,3610.92,599.87,599.65,0.91,0000 0000 0000 0000 000000
2017-06-25 02:22:06,0.02,0.02,0.00,20.63,19.55,23.91,13.78,42.72,1014.15,2067.03,3625.99,3138.67,3608.41,599.90,599.28,0.96,0000 0000 0000 0000 000000
2017-06-25 02:27:08,-0.01,0.02,0.00,20.83,19.87,24.21,13.79,42.76,1014.17,2065.77,3623.63,3136.63,3605.92,599.88,598.82,1.01,0000 0000 0000 0000 000000
2017-06-25 02:32:09,0.01,0.02,0.00,21.01,20.18,24.51,13.74,42.55,1014.17,2064.62,3621.28,3134.73,3603.48,599.83,598.52,1.06,0000 0000 0000 0000 000000
2017-06-25 02:37:10,0.02,0.02,0.00,21.17,20.48,24.78,13.74,42.59,1014.17,2063.46,3619.00,3132.77,3601.03,599.73,598.15,1.11,0000 0000 0000 0000 000000
2017-06-25 02:42:12,0.02,0.02,0.00,21.32,20.78,25.05,13.87,42.58,1014.18,2062.14,3616.85,3130.77,3598.56,600.30,598.28,1.16,0000 0000 0000 0000 000000
2017-06-25 02:47:13,-0.01,0.02,0.00,21.48,21.08,25.30,13.83,42.77,1014.18,2060.87,3614.79,3128.93,3596.23,599.98,597.69,1.21,0000 0000 0000 0000 000000
2017-06-25 02:52:14,-0.00,0.02,0.00,21.61,21.37,25.54,13.78,42.71,1014.19,2059.74,3612.66,3127.15,3594.05,600.19,597.50,1.26,0000 0000 0000 0000 000000
2017-06-25 02:57:15,-0.01,0.02,0.00,21.74,21.64,25.78,13.83,42.70,1014.18,2058.59,3610.71,3125.36,3591.88,600.20,597.31,1.31,0000 0000 0000 0000 000000
2017-06-25 03:02:17,0.02,0.02,0.00,21.87,21.91,26.01,13.84,42.73,1014.18,2057.46,3608.65,3123.51,3589.65,600.40,597.28,1.36,0000 0000 0000 0000 000000
2017-06-25 03:07:18,0.02,0.02,0.00,21.98,22.17,26.24,13.76,42.48,1014.18,2056.41,3606.68,3121.74,3587.54,599.83,596.37,1.41,0000 0000 0000 0000 000000
2017-06-25 03:12:19,0.01,0.02,0.00,22.10,22.43,26.45,13.79,42.62,1014.18,2055.36,3604.66,3120.01,3585.41,599.90,596.25,1.46,0000 0000 0000 0000 000000
2017-06-25 03:17:21,-0.00,0.02,0.00,22.22,22.68,26.65,13.79,42.69,1014.16,2054.31,3602.82,3118.37,3583.54,600.19,596.28,1.51,0000 0000 0000 0000 000000
2017-06-25 03:22:22,0.01,0.02,0.00,22.32,22.92,26.86,13.80,42.49,1014.17,2053.41,3600.86,3116.73,3581.74,600.26,596.22,1.56,0000 0000 0000 0000 000000
2017-06-25 03:27:23,-0.01,0.02,0.00,22.44,23.15,27.03,13.76,42.59,1014.18,2052.36,3599.31,3115.20,3579.74,599.99,595.73,1.61,0000 0000 0000 0000 000000
2017-06-25 03:32:24,0.01,0.02,0.00,22.55,23.37,27.20,13.73,42.61,1014.18,2051.31,3597.55,3113.63,3577.85,599.87,595.38,1.66,0000 0000 0000 0000 000000
2017-06-25 03:37:26,-0.00,0.02,0.00,22.65,23.59,27.34,13.68,42.56,1014.18,2050.35,3595.80,3112.12,3575.97,599.91,595.19,1.71,0000 0000 0000 0000 000000
2017-06-25 03:42:27,0.01,0.02,0.00,22.76,23.81,27.45,13.78,42.59,1014.15,2049.43,3594.16,3110.56,3574.16,599.81,594.89,1.76,0000 0000 0000 0000 000000
2017-06-25 03:47:28,0.01,0.02,0.00,22.86,24.01,27.50,13.80,42.52,1014.04,2048.66,3592.42,3109.20,3572.46,600.22,594.98,1.81,0000 0000 0000 0000 000000
2017-06-25 03:52:29,0.00,0.02,0.00,22.97,24.21,27.57,13.77,42.48,1014.11,2047.57,3590.73,3107.67,3570.62,600.20,594.83,1.86,0000 0000 0000 0000 000000
2017-06-25 03:57:30,0.06,0.03,0.00,23.06,24.41,27.69,13.74,42.47,1014.06,2046.97,3589.04,3106.31,3568.82,599.97,594.27,1.91,0000 0000 0000 0000 000000
2017-06-25 04:02:32,-0.01,0.03,0.00,23.15,24.60,27.81,13.70,42.37,1013.84,2046.17,3587.42,3104.88,3567.21,599.74,593.70,1.96,0000 0000 0000 0000 000000
2017-06-25 04:07:33,0.00,0.03,0.00,23.23,24.78,27.94,13.73,42.40,1013.75,2045.37,3585.81,3103.56,3565.52,599.80,593.69,2.01,0000 0000 0000 0000 000000
2017-06-25 04:12:34,0.01,0.03,0.00,23.31,24.96,28.06,13.78,42.38,1013.73,2044.74,3584.34,3102.32,3563.94,600.13,593.78,2.06,0000 0000 0000 0000 000000
2017-06-25 04:17:36,0.02,0.03,0.00,23.41,25.13,28.16,13.63,42.33,1013.72,2044.02,3583.03,3101.07,3562.53,599.82,593.34,2.11,0000 0000 0000 0000 000000
2017-06-25 04:22:37,-0.01,0.03,0.00,23.50,25.29,28.32,13.69,42.38,1013.83,2043.18,3581.73,3099.86,3560.95,599.92,593.44,2.16,0000 0000 0000 0000 000000
2017-06-25 04:27:38,0.00,0.03,0.00,23.58,25.46,28.43,13.73,42.32,1013.89,2042.52,3580.29,3098.64,3559.53,600.19,593.39,2.21,0000 0000 0000 0000 000000
2017-06-25 04:32:39,0.02,0.03,0.00,23.67,25.62,28.59,13.74,42.31,1013.84,2041.85,3578.83,3097.42,3558.00,600.15,593.24,2.26,0000 0000 0000 0000 000000
2017-06-25 04:37:41,0.01,0.03,0.00,23.77,25.77,28.74,13.76,42.35,1014.04,2041.08,3577.54,3096.34,3556.64,600.13,593.22,2.31,0000 0000 0000 0000 000000
2017-06-25 04:42:43,-0.02,0.03,0.00,23.86,25.93,28.85,13.75,42.33,1013.81,2040.40,3576.26,3095.27,3555.24,599.84,592.49,2.36,0000 0000 0000 0000 000000
2017-06-25 04:47:44,0.04,0.03,0.00,23.94,26.07,28.98,13.81,42.41,1013.76,2039.87,3574.77,3094.10,3553.77,600.31,592.74,2.41,0000 0000 0000 0000 000000
2017-06-25 04:52:45,-0.01,0.03,0.00,24.01,26.22,29.11,13.67,42.22,1013.74,2039.06,3573.46,3093.04,3552.47,600.17,592.48,2.47,0000 0000 0000 0000 000000
2017-06-25 04:57:47,0.00,0.03,0.00,24.09,26.36,29.23,13.67,42.15,1013.69,2038.59,3572.12,3091.96,3551.18,599.79,591.90,2.52,0000 0000 0000 0000 000000
2017-06-25 05:02:48,0.03,0.03,0.00,24.17,26.49,29.34,13.78,42.17,1013.70,2037.99,3570.91,3090.95,3549.84,600.38,592.37,2.57,0000 0000 0000 0000 000000
2017-06-25 05:07:50,-0.02,0.03,0.00,24.25,26.62,29.45,13.72,42.28,1013.70,2037.28,3569.80,3090.00,3548.63,599.98,591.72,2.62,0000 0000 0000 0000 000000
2017-06-25 05:12:51,0.04,0.03,0.00,24.34,26.75,29.56,13.72,42.17,1013.69,2036.95,3568.59,3089.05,3547.49,599.88,591.61,2.67,0000 0000 0000 0000 000000
2017-06-25 05:17:52,-0.02,0.03,0.00,24.42,26.88,29.68,13.70,42.27,1013.69,2036.16,3567.32,3088.05,3546.23,599.92,591.39,2.72,0000 0000 0000 0000 000000
2017-06-25 05:22:53,0.05,0.04,0.00,24.50,27.00,29.79,13.78,42.20,1013.69,2035.90,3565.88,3087.01,3544.98,600.17,591.50,2.77,0000 0000 0000 0000 000000
2017-06-25 05:27:54,-0.01,0.03,0.00,24.58,27.12,29.89,13.62,42.22,1013.69,2035.07,3564.59,3085.99,3543.77,599.55,590.90,2.82,0000 0000 0000 0000 000000
2017-06-25 05:32:56,0.04,0.04,0.00,24.66,27.25,29.99,13.71,42.22,1013.65,2034.89,3563.36,3085.05,3542.60,600.12,591.07,2.87,0000 0000 0000 0000 000000
2017-06-25 05:37:57,-0.02,0.04,0.00,24.72,27.36,30.09,13.68,42.37,1013.35,2034.13,3562.02,3084.11,3541.43,600.17,590.84,2.92,0000 0000 0000 0000 000000
2017-06-25 05:42:58,0.04,0.04,0.00,24.78,27.47,30.20,13.63,42.15,1013.36,2033.93,3560.92,3083.31,3540.39,599.86,590.48,2.97,0000 0000 0000 0000 000000
2017-06-25 05:48:00,-0.02,0.04,0.00,24.85,27.58,30.30,13.72,42.10,1013.34,2033.17,3559.68,3082.45,3539.29,600.01,590.24,3.02,0000 0000 0000 0000 000000
2017-06-25 05:53:01,0.04,0.04,0.00,24.89,27.69,30.37,13.78,42.04,1013.24,2032.98,3558.56,3081.66,3538.15,600.05,590.41,3.07,0000 0000 0000 0000 000000
2017-06-25 05:58:03,-0.03,0.04,0.00,24.85,27.78,30.44,13.72,41.98,1013.22,2032.43,3557.57,3080.98,3537.20,600.21,590.49,3.12,0000 0000 0000 0000 000000
2017-06-25 06:03:04,0.04,0.04,0.00,24.77,27.87,30.51,13.70,42.02,1013.20,2032.01,3556.47,3080.17,3536.35,599.92,590.43,3.17,0000 0000 0000 0000 000000
2017-06-25 06:08:05,0.04,0.04,0.00,24.71,27.95,30.57,13.82,42.03,1013.18,2032.00,3555.36,3079.55,3535.51,600.15,590.64,3.22,0000 0000 0000 0000 000000
2017-06-25 06:13:06,-0.01,0.04,0.00,24.69,28.01,30.61,13.60,41.96,1013.14,2031.72,3554.42,3078.98,3534.64,600.08,590.58,3.27,0000 0000 0000 0000 000000
2017-06-25 06:18:08,0.00,0.04,0.00,24.70,28.07,30.64,13.74,42.00,1013.15,2031.08,3553.62,3078.25,3533.94,600.01,590.63,3.32,0000 0000 0000 0000 000000
2017-06-25 06:23:09,0.02,0.04,0.00,24.71,28.12,30.66,13.66,42.01,1013.10,2031.00,3552.77,3077.99,3533.13,599.83,590.47,3.37,0000 0000 0000 0000 000000
2017-06-25 06:28:11,0.03,0.04,0.00,24.72,28.16,30.67,13.73,42.07,1012.89,2030.99,3552.05,3077.41,3532.57,600.33,590.75,3.42,0000 0000 0000 0000 000000
2017-06-25 06:33:12,-0.00,0.05,0.00,24.75,28.20,30.69,13.68,41.98,1012.85,2030.84,3551.52,3077.00,3532.00,599.76,590.11,3.47,0000 0000 0000 0000 000000
2017-06-25 06:38:13,-0.02,0.04,0.00,24.78,28.23,30.69,13.78,41.98,1012.83,2030.31,3550.69,3076.86,3531.43,600.36,590.63,3.52,0000 0000 0000 0000 000000
2017-06-25 06:43:15,0.02,0.04,0.00,24.83,28.26,30.70,13.62,42.00,1012.88,2030.02,3549.91,3076.09,3530.86,599.72,589.98,3.57,0000 0000 0000 0000 000000
2017-06-25 06:48:16,0.02,0.05,0.00,24.87,28.30,30.71,13.66,41.92,1012.73,2030.00,3549.17,3075.99,3530.13,599.72,589.81,3.62,0000 0000 0000 0000 000000
2017-06-25 06:53:18,0.03,0.05,0.00,24.92,28.33,30.72,13.73,41.86,1012.73,2030.00,3548.47,3075.50,3529.79,600.28,590.14,3.67,0000 0000 0000 0000 000000
2017-06-25 06:58:19,0.01,0.05,0.00,24.98,28.36,30.73,13.73,41.86,1012.72,2029.99,3547.97,3075.02,3529.05,600.16,589.97,3.72,0000 0000 0000 0000 000000
2017-06-25 07:03:20,0.01,0.05,0.00,25.03,28.39,30.75,13.69,41.82,1012.72,2029.90,3547.27,3074.99,3528.76,599.79,589.53,3.77,0000 0000 0000 0000 000000
2017-06-25 07:08:21,-0.02,0.05,0.00,25.10,28.42,30.77,13.70,41.77,1012.71,2029.40,3546.82,3074.38,3528.04,600.13,589.67,3.82,0000 0000 0000 0000 000000
2017-06-25 07:13:23,0.01,0.05,0.00,25.17,28.45,30.79,13.66,41.63,1012.71,2029.05,3546.08,3074.01,3527.57,600.20,589.63,3.87,0000 0000 0000 0000 000000
2017-06-25 07:18:24,0.01,0.05,0.00,25.23,28.48,30.82,13.70,41.81,1012.71,2029.00,3545.44,3073.95,3527.01,600.27,589.57,3.92,0000 0000 0000 0000 000000
2017-06-25 07:23:25,0.04,0.05,0.00,25.30,28.52,30.86,13.61,41.63,1012.70,2029.00,3544.75,3073.32,3526.57,600.05,589.27,3.97,0000 0000 0000 0000 000000
2017-06-25 07:28:26,0.01,0.05,0.00,25.38,28.55,30.90,13.60,41.61,1012.71,2028.98,3544.04,3073.00,3525.98,600.02,589.08,4.02,0000 0000 0000 0000 000000
2017-06-25 07:33:27,0.02,0.05,0.00,25.45,28.59,30.93,13.58,41.63,1012.71,2028.92,3543.55,3072.80,3525.21,599.87,588.70,4.07,0000 0000 0000 0000 000000
2017-06-25 07:38:28,-0.03,0.05,0.00,25.53,28.63,30.97,13.64,41.58,1012.71,2028.51,3543.00,3072.09,3524.93,600.07,588.76,4.12,0000 0000 0000 0000 000000
2017-06-25 07:43:30,0.01,0.05,0.00,25.61,28.67,31.01,13.55,41.44,1012.71,2028.05,3542.16,3071.98,3524.11,599.62,588.17,4.17,0000 0000 0000 0000 000000
2017-06-25 07:48:31,0.03,0.05,0.00,25.67,28.71,31.07,13.60,41.56,1012.71,2028.00,3541.69,3071.51,3523.68,600.01,588.51,4.22,0000 0000 0000 0000 000000
2017-06-25 07:53:32,0.02,0.06,0.00,25.75,28.76,31.11,13.62,41.52,1012.71,2027.99,3540.77,3071.01,3522.93,599.72,588.00,4.27,0000 0000 0000 0000 000000
2017-06-25 07:58:33,0.02,0.06,0.00,25.80,28.80,31.16,13.61,41.59,1012.70,2027.92,3539.96,3070.72,3522.14,600.02,588.20,4.32,0000 0000 0000 0000 000000
2017-06-25 08:03:35,-0.02,0.06,0.00,25.87,28.85,31.21,13.60,41.73,1012.70,2027.52,3539.15,3070.06,3521.67,599.76,587.71,4.37,0000 0000 0000 0000 000000
2017-06-25 08:08:36,-0.01,0.06,0.00,25.95,28.90,31.27,13.60,41.53,1012.70,2027.06,3538.63,3069.96,3521.02,600.07,588.02,4.42,0000 0000 0000 0000 000000
2017-06-25 08:13:37,0.03,0.06,0.00,26.01,28.95,31.33,13.60,41.68,1012.71,2027.00,3537.96,3069.31,3520.46,600.06,587.79,4.47,0000 0000 0000 0000 000000
2017-06-25 08:18:39,0.02,0.06,0.00,26.07,29.00,31.38,13.49,41.75,1012.68,2026.99,3537.12,3068.98,3519.94,599.60,587.30,4.52,0000 0000 0000 0000 000000
2017-06-25 08:23:40,0.02,0.06,0.00,26.13,29.05,31.45,13.51,41.67,1012.59,2026.79,3536.30,3068.32,3519.14,599.58,587.26,4.57,0000 0000 0000 0000 000000
2017-06-25 08:28:41,-0.04,0.06,0.00,26.19,29.10,31.50,13.59,41.59,1012.55,2026.11,3535.64,3067.99,3518.62,599.88,587.08,4.62,0000 0000 0000 0000 000000
2017-06-25 08:33:43,0.03,0.06,0.00,26.26,29.15,31.56,13.57,41.48,1012.49,2026.00,3534.87,3067.42,3517.97,599.98,587.04,4.67,0000 0000 0000 0000 000000
2017-06-25 08:38:44,0.02,0.06,0.00,26.32,29.21,31.62,13.60,41.55,1012.45,2026.00,3534.03,3067.00,3517.18,599.94,586.99,4.72,0000 0000 0000 0000 000000
2017-06-25 08:43:45,0.02,0.06,0.00,26.38,29.26,31.67,13.62,41.67,1012.45,2025.86,3533.28,3066.40,3516.61,600.05,587.02,4.78,0000 0000 0000 0000 000000
2017-06-25 08:48:47,-0.05,0.06,0.00,26.43,29.32,31.73,13.55,41.79,1012.38,2025.16,3532.75,3066.00,3515.99,599.86,586.67,4.83,0000 0000 0000 0000 000000
2017-06-25 08:53:48,0.03,0.06,0.00,26.48,29.38,31.79,13.57,41.63,1012.44,2025.01,3531.94,3065.52,3515.25,600.13,586.82,4.88,0000 0000 0000 0000 000000
2017-06-25 08:58:49,0.02,0.06,0.00,26.53,29.43,31.85,13.62,41.40,1012.40,2025.00,3531.10,3065.00,3514.56,600.16,586.74,4.93,0000 0000 0000 0000 000000
2017-06-25 09:03:50,0.02,0.06,0.00,26.58,29.49,31.92,13.53,41.36,1012.45,2024.87,3530.23,3064.38,3513.89,599.70,586.19,4.98,0000 0000 0000 0000 000000
2017-06-25 09:08:52,-0.03,0.06,0.00,26.63,29.54,31.96,13.51,41.56,1012.29,2024.20,3529.52,3064.00,3513.07,599.88,586.15,5.03,0000 0000 0000 0000 000000
2017-06-25 09:13:52,0.03,0.06,0.00,26.67,29.60,32.02,13.56,41.57,1012.25,2024.03,3528.84,3063.61,3512.60,600.36,586.57,5.08,0000 0000 0000 0000 000000
2017-06-25 09:18:54,0.02,0.07,0.00,26.71,29.65,32.07,13.62,41.51,1012.23,2024.00,3527.99,3063.01,3511.93,599.90,586.02,5.13,0000 0000 0000 0000 000000
2017-06-25 09:23:55,0.04,0.07,0.00,26.77,29.71,32.13,13.55,41.48,1012.23,2023.97,3527.13,3062.39,3511.12,600.12,586.00,5.18,0000 0000 0000 0000 000000
2017-06-25 09:28:57,-0.02,0.07,0.00,26.82,29.76,32.18,13.58,41.47,1012.22,2023.64,3526.51,3062.01,3510.57,600.02,585.88,5.23,0000 0000 0000 0000 000000
2017-06-25 09:33:58,0.01,0.07,0.00,26.89,29.81,32.24,13.61,41.45,1012.22,2023.07,3525.60,3061.45,3509.84,599.98,585.70,5.28,0000 0000 0000 0000 000000
2017-06-25 09:38:59,0.01,0.07,0.00,26.94,29.87,32.30,13.57,41.37,1012.22,2022.99,3524.90,3060.99,3509.05,599.92,585.58,5.33,0000 0000 0000 0000 000000
2017-06-25 09:44:01,0.04,0.07,0.00,27.01,29.92,32.36,13.56,41.42,1012.22,2022.96,3524.12,3060.41,3508.44,599.91,585.33,5.38,0000 0000 0000 0000 000000
2017-06-25 09:49:02,-0.04,0.07,0.00,27.08,29.98,32.41,13.50,41.49,1012.22,2022.50,3523.40,3060.00,3507.86,599.49,584.90,5.43,0000 0000 0000 0000 000000
2017-06-25 09:54:03,0.02,0.07,0.00,27.15,30.04,32.47,13.61,41.44,1012.22,2022.04,3522.66,3059.45,3507.06,600.33,585.59,5.48,0000 0000 0000 0000 000000
2017-06-25 09:59:05,0.02,0.07,0.00,27.21,30.09,32.52,13.52,41.30,1012.22,2022.00,3521.92,3059.00,3506.36,600.15,585.26,5.53,0000 0000 0000 0000 000000
2017-06-25 10:04:06,0.03,0.07,0.00,27.27,30.15,32.58,13.58,41.35,1012.23,2021.93,3521.05,3058.33,3505.69,600.08,585.05,5.58,0000 0000 0000 0000 000000
2017-06-25 10:09:08,-0.04,0.07,0.00,27.34,30.21,32.63,13.52,41.25,1012.23,2021.39,3520.24,3057.96,3504.99,600.09,584.96,5.63,0000 0000 0000 0000 000000
2017-06-25 10:14:09,0.03,0.07,0.00,27.41,30.27,32.69,13.50,41.27,1012.25,2021.01,3519.50,3057.17,3504.15,600.04,584.87,5.68,0000 0000 0000 0000 000000
2017-06-25 10:19:10,0.02,0.07,0.00,27.46,30.33,32.76,13.52,41.27,1012.29,2021.00,3518.83,3056.93,3503.58,599.76,584.49,5.73,0000 0000 0000 0000 000000
2017-06-25 10:24:12,0.02,0.07,0.00,27.50,30.38,32.82,13.53,41.39,1012.36,2020.87,3518.02,3056.15,3502.85,600.11,584.75,5.78,0000 0000 0000 0000 000000
2017-06-25 10:29:13,-0.03,0.07,0.00,27.54,30.44,32.88,13.46,41.38,1012.38,2020.27,3517.19,3055.97,3502.06,599.64,584.16,5.83,0000 0000 0000 0000 000000
2017-06-25 10:34:14,0.04,0.07,0.00,27.56,30.50,32.94,13.53,41.33,1012.31,2020.02,3516.54,3055.29,3501.56,599.64,584.05,5.88,0000 0000 0000 0000 000000
2017-06-25 10:39:15,0.02,0.07,0.00,27.61,30.56,32.99,13.49,41.22,1012.33,2020.00,3515.70,3054.92,3500.85,599.94,584.30,5.93,0000 0000 0000 0000 000000
2017-06-25 10:44:16,0.03,0.08,0.00,27.65,30.61,33.05,13.49,41.17,1012.25,2019.95,3514.96,3054.15,3500.08,600.07,584.36,5.98,0000 0000 0000 0000 000000
2017-06-25 10:49:18,-0.04,0.08,0.00,27.70,30.67,33.10,13.53,41.28,1012.24,2019.32,3514.12,3053.92,3499.36,599.77,584.00,6.03,0000 0000 0000 0000 000000
2017-06-25 10:54:19,0.02,0.08,0.00,27.79,30.73,33.14,13.52,41.28,1012.23,2019.04,3513.56,3053.23,3498.89,600.18,584.28,6.08,0000 0000 0000 0000 000000
2017-06-25 10:59:20,0.02,0.08,0.00,27.87,30.78,33.20,13.52,41.27,1012.22,2018.99,3512.80,3052.96,3498.10,600.26,584.16,6.13,0000 0000 0000 0000 000000
2017-06-25 11:04:22,0.03,0.08,0.00,27.97,30.84,33.26,13.46,41.28,1012.22,2018.89,3512.03,3052.19,3497.48,599.98,583.57,6.18,0000 0000 0000 0000 000000
2017-06-25 11:09:23,-0.04,0.08,0.00,28.07,30.89,33.33,13.51,41.22,1012.22,2018.28,3511.35,3051.99,3496.95,600.34,583.78,6.23,0000 0000 0000 0000 000000
2017-06-25 11:14:24,0.03,0.08,0.00,28.13,30.95,33.40,13.44,41.17,1012.21,2018.01,3510.74,3051.42,3496.17,599.88,583.22,6.28,0000 0000 0000 0000 000000
2017-06-25 11:19:25,0.02,0.08,0.00,28.21,31.01,33.48,13.53,41.20,1012.14,2017.99,3509.97,3050.95,3495.45,600.28,583.39,6.33,0000 0000 0000 0000 000000
2017-06-25 11:24:27,-0.01,0.08,0.00,28.29,31.07,33.56,13.48,41.17,1012.12,2017.62,3509.18,3050.21,3494.84,599.85,582.87,6.38,0000 0000 0000 0000 000000
2017-06-25 11:29:28,-0.00,0.08,0.00,28.35,31.13,33.61,13.45,41.04,1012.10,2017.17,3508.43,3049.96,3494.08,599.93,582.80,6.43,0000 0000 0000 0000 000000
2017-06-25 11:34:29,0.03,0.08,0.00,28.39,31.19,33.68,13.43,41.16,1012.13,2017.00,3507.87,3049.25,3493.48,599.81,582.68,6.48,0000 0000 0000 0000 000000
2017-06-25 11:39:30,-0.00,0.08,0.00,28.42,31.25,33.73,13.53,41.10,1012.06,2016.89,3507.11,3048.96,3492.90,600.02,582.63,6.53,0000 0000 0000 0000 000000
2017-06-25 11:44:31,-0.02,0.08,0.00,28.45,31.31,33.77,13.45,41.10,1011.85,2016.17,3506.35,3048.18,3492.10,599.82,582.32,6.58,0000 0000 0000 0000 000000
2017-06-25 11:49:32,0.01,0.08,0.00,28.49,31.36,33.83,13.63,41.13,1011.78,2016.00,3505.84,3047.98,3491.61,600.23,582.60,6.63,0000 0000 0000 0000 000000
2017-06-25 11:54:34,0.04,0.08,0.00,28.52,31.41,33.88,13.50,41.07,1011.76,2015.99,3505.06,3047.36,3490.98,600.10,582.37,6.68,0000 0000 0000 0000 000000
2017-06-25 11:59:35,0.01,0.08,0.00,28.52,31.46,33.93,13.46,41.09,1011.75,2015.85,3504.53,3047.00,3490.36,599.88,582.15,6.73,0000 0000 0000 0000 000000
2017-06-25 12:04:36,-0.04,0.08,0.00,28.54,31.51,33.96,13.55,41.11,1011.73,2015.20,3503.97,3046.54,3489.93,600.13,582.38,6.78,0000 0000 0000 0000 000000
2017-06-25 12:09:37,0.02,0.08,0.00,28.56,31.56,34.01,13.52,41.19,1011.73,2015.02,3503.24,3046.03,3489.16,600.09,582.32,6.83,0000 0000 0000 0000 000000
2017-06-25 12:14:39,0.01,0.08,0.00,28.58,31.61,34.06,13.52,41.22,1011.73,2014.97,3502.76,3045.90,3488.78,600.01,582.22,6.88,0000 0000 0000 0000 000000
2017-06-25 12:19:40,-0.01,0.08,0.00,28.60,31.66,34.11,13.44,41.10,1011.73,2014.56,3501.98,3045.13,3488.03,600.00,582.13,6.93,0000 0000 0000 0000 000000
2017-06-25 12:24:41,0.00,0.08,0.00,28.62,31.71,34.14,13.53,41.18,1011.73,2014.05,3501.17,3044.93,3487.36,600.21,582.31,6.98,0000 0000 0000 0000 000000
2017-06-25 12:29:42,0.03,0.08,0.00,28.65,31.75,34.19,13.50,41.25,1011.74,2014.00,3500.60,3044.22,3486.86,600.26,582.33,7.03,0000 0000 0000 0000 000000
2017-06-25 12:34:44,0.01,0.09,0.00,28.67,31.80,34.21,13.49,41.17,1011.73,2013.99,3499.97,3043.99,3486.11,600.01,581.97,7.08,0000 0000 0000 0000 000000
2017-06-25 12:39:45,0.03,0.09,0.00,28.69,31.84,34.25,13.49,41.09,1011.74,2013.89,3499.16,3043.54,3485.76,600.35,582.34,7.14,0000 0000 0000 0000 000000
2017-06-25 12:44:47,-0.03,0.09,0.00,28.72,31.88,34.29,13.53,41.22,1011.74,2013.28,3498.52,3043.01,3485.04,600.04,582.03,7.19,0000 0000 0000 0000 000000
2017-06-25 12:49:48,0.02,0.08,0.00,28.75,31.92,34.32,13.49,41.17,1011.73,2013.01,3497.95,3042.64,3484.49,600.31,582.10,7.24,0000 0000 0000 0000 000000
2017-06-25 12:54:49,0.02,0.09,0.00,28.76,31.96,34.37,13.52,41.17,1011.73,2013.00,3497.17,3042.04,3483.99,600.07,581.95,7.29,0000 0000 0000 0000 000000
2017-06-25 12:59:51,0.01,0.09,0.00,28.79,32.00,34.40,13.48,41.11,1011.74,2012.97,3496.80,3041.99,3483.47,600.51,582.26,7.34,0000 0000 0000 0000 000000
2017-06-25 13:04:52,0.01,0.09,0.00,28.82,32.04,34.43,13.48,41.08,1011.73,2012.74,3496.04,3041.41,3483.00,600.12,581.83,7.39,0000 0000 0000 0000 000000
2017-06-25 13:09:53,-0.02,0.09,0.00,28.82,32.08,34.47,13.49,41.17,1011.75,2012.15,3495.53,3041.01,3482.43,599.97,581.72,7.44,0000 0000 0000 0000 000000
2017-06-25 13:14:54,0.00,0.09,0.00,28.82,32.11,34.49,13.47,40.99,1011.73,2012.01,3495.00,3040.92,3482.00,600.18,581.82,7.49,0000 0000 0000 0000 000000
2017-06-25 13:19:55,0.03,0.09,0.00,28.83,32.15,34.52,13.49,40.99,1011.74,2012.00,3494.43,3040.37,3481.61,599.99,581.53,7.54,0000 0000 0000 0000 000000
2017-06-25 13:24:57,0.01,0.09,0.00,28.84,32.18,34.56,13.51,41.04,1011.73,2011.99,3494.01,3040.03,3481.03,599.83,581.50,7.59,0000 0000 0000 0000 000000
2017-06-25 13:29:58,0.01,0.09,0.00,28.85,32.21,34.59,13.47,41.06,1011.74,2011.93,3493.57,3039.99,3480.89,599.94,581.62,7.64,0000 0000 0000 0000 000000
2017-06-25 13:34:59,-0.03,0.09,0.00,28.87,32.25,34.62,13.47,41.11,1011.73,2011.51,3493.00,3039.78,3480.12,599.63,581.46,7.69,0000 0000 0000 0000 000000
2017-06-25 13:40:00,0.00,0.09,0.00,28.87,32.27,34.64,13.45,41.06,1011.73,2011.07,3492.40,3039.09,3479.96,600.15,581.83,7.74,0000 0000 0000 0000 000000
2017-06-25 13:45:01,0.01,0.09,0.00,28.87,32.31,34.69,13.45,41.02,1011.73,2011.00,3492.00,3038.99,3479.31,599.64,581.34,7.79,0000 0000 0000 0000 000000